Regional Weather Roundup
Issued by NWS

Home | Current Version | Previous Version | Text Only | Print | Product List | Glossary Off
Versions: 1 2 3 4 5 6 7 8 9 10 11 12 13 14 15 16 17 18 19 20 21 22 23 24 25 26 27 28 29 30 31 32 33 34 35 36 37 38 39 40 41 42 43 44 45 46 47 48 49 50

000
ASUS45 KPSR 292010
RWRAZ

ARIZONA REGIONAL HOURLY WEATHER ROUNDUP
NATIONAL WEATHER SERVICE TUCSON AZ
100 PM MST MON MAY 29 2017

NOTE: FAIR INDICATES FEW OR NO CLOUDS BELOW 12,000 FEET WITH NO
SIGNIFICANT WEATHER AND/OR OBSTRUCTIONS TO VISIBILITY.

AZZ001>003-036-292100-
NORTHWEST ARIZONA

CITY           SKY/WX    TMP DP  RH WIND       PRES   REMARKS
BULLHEAD CITY  SUNNY    102  21   5 CALM      29.76F
KINGMAN        SUNNY     94  27   9 SW8       29.93F
$$

AZZ004>008-015-016-018-292100-
NORTH CENTRAL ARIZONA

CITY           SKY/WX    TMP DP  RH WIND       PRES   REMARKS
GRAND CANYON   MOSUNNY   76  20  12 NE16      30.19F
WILLIAMS       PTCLDY    75  21  13 E10G17    30.18F
PRESCOTT       SUNNY     84  17   8 VRB7      30.06F
FLAGSTAFF      MOSUNNY   73  21  14 SE10G20   30.20F
PAYSON         CLEAR     82  27  13 W8G14     30.11F
PAGE           SUNNY     86  20   9 NE9       30.05F
$$

AZZ009>014-017-292100-
NORTHEAST ARIZONA

CITY           SKY/WX    TMP DP  RH WIND       PRES   REMARKS
WINSLOW        SUNNY     86  21   9 E12G21    30.07F
SAINT JOHNS    MOSUNNY   81  20  10 SW12      30.10F
WINDOW ROCK    PTSUNNY   74  21  13 VRB5      30.20F
SHOW LOW       MOSUNNY   75  23  14 S13       30.17F
$$

AZZ023-292100-
GREATER PHOENIX AREA

CITY           SKY/WX    TMP DP  RH WIND       PRES   REMARKS
PHOENIX        PTSUNNY  100  22   6 VRB5      29.79F
BUCKEYE        MOCLDY    97  25   7 E3        29.80F
GLENDALE       MOSUNNY  100  21   6 MISG      29.81F
LUKE AFB       MOSUNNY  100  22   6 S6        29.79F
DEER VALLEY    SUNNY     98  19   6 S8        29.81F
SCOTTSDALE     SUNNY     98  18   5 CALM      29.83F
MESA-FALCON    MOSUNNY   99  28   8 S12       29.81F
MESA-GATEWAY   MOSUNNY  100  28   8 W3        29.80F
CHANDLER       SUNNY    100  25   7 VRB5      29.80F
$$

AZZ027-028-292100-
SOUTHWEST MARICOPA COUNTY AND PINAL COUNTY

CITY           SKY/WX    TMP DP  RH WIND       PRES   REMARKS
CASA GRANDE    SUNNY     99  25   7 W7        29.82F
$$

AZZ503-504-507>509-292100-
SOUTHEAST ARIZONA

CITY           SKY/WX    TMP DP  RH WIND       PRES   REMARKS
TUCSON         MOSUNNY   98  18   5 S10       29.89F
DAVIS-MONTHAN  MOSUNNY   95  19   6 W9        29.88F
RYAN FIELD     CLEAR     99  16   5 SE6G16    29.87F
NOGALES        SUNNY     93  10   4 MISG      29.97F
SIERRA VISTA   SUNNY     91  11   5 E7G22     30.04F
DOUGLAS        SUNNY     91  20   7 VRB6G21   29.99F
SAFFORD        SUNNY     95  33  11 SE8       29.92F
$$

AZZ020-021-025-026-031-292100-
SOUTHWEST ARIZONA

CITY           SKY/WX    TMP DP  RH WIND       PRES   REMARKS
YUMA           PTSUNNY  101  35  10 VRB7      29.75F
$$

CAZ031-033-041-043-047-048-061-292100-
SOUTHERN CALIFORNIA

CITY           SKY/WX    TMP DP  RH WIND       PRES   REMARKS
DOWNTOWN L.A.  NOT AVBL
L.A. AIRPORT   PTSUNNY   67  57  70 SW12      29.93S
SAN DIEGO      CLOUDY    64  57  78 NW8       29.96S
BURBANK        MOSUNNY   74  55  51 VRB5      29.91S
ONTARIO        PTSUNNY   77  54  44 W10       29.91F
RIVERSIDE      MOSUNNY   76  55  48 W12       29.90F
PALM SPRINGS   MOSUNNY  106  26   6 SE13G20   29.75F
EL CENTRO NAS  PTSUNNY  100  25   7 E7        29.74F
IMPERIAL       PTSUNNY  102  34   9 NE3       29.72F
BLYTHE         PTSUNNY  100  25   7 VRB6      29.75F
NEEDLES        MOSUNNY  103  12   4 VRB3      29.78F
$$

NVZ020-UTZ003-292100-
SOUTHERN NEVADA-UTAH

CITY           SKY/WX    TMP DP  RH WIND       PRES   REMARKS
LAS VEGAS      MOSUNNY   95  14   5 E8        29.87F
SALT LAKE CITY MOSUNNY   81  35  19 NW12      30.10F
$$

NMZ009-TXZ055-292100-
NEW MEXICO-WEST TEXAS

CITY           SKY/WX    TMP DP  RH WIND       PRES   REMARKS
ALBUQUERQUE    PTSUNNY   79  31  17 W8        30.12F
EL PASO        MOSUNNY   87  37  17 SE13      30.04F
$$


........................KEY........................
SKY/WX - SKY CONDITION/WEATHER
TMP    - TEMPERATURE IN FAHRENHEIT
DP     - DEWPOINT IN FAHRENHEIT
RH     - RELATIVE HUMIDITY IN PERCENT
WIND   - DIRECTION AND SPEED IN MILES PER HOUR (MPH)
VRB    - VARIABLE WIND DIRECTION
PRES   - MEAN SEA LEVEL PRESSURE IN INCHES OF MERCURY
         F - FALLING PRESSURE   R - RISING PRESSURE
         S - STEADY PRESSURE
VSB    - VISIBILITY IN MILES
HX     - HEAT INDEX IN FAHRENHEIT
WCI    - WIND CHILL INDEX IN FAHRENHEIT
TC     - TEMPERATURE IN CELSIUS WHICH IS ALSO KNOWN AS
         TEMPERATURE IN CENTIGRADE
AFB    - AIR FORCE BASE
         LUKE AFB IS LUKE AIR FORCE BASE
         DAVIS-MONTHAN IS DAVIS-MONTHAN AIR FORCE BASE
NAS    - NAVAL AIR STATION
         EL CENTRO NAS IS EL CENTRO NAVAL AIR STATION
N/A    - NOT AVAILABLE




USA.gov is the U.S. government's official web portal to all federal, state and local government web resources and services.